Regional Weather Roundup
Issued by NWS

Home | Current Version | Previous Version | Text Only | Print | Product List | Glossary Off
Versions: 1 2 3 4 5 6 7 8 9 10 11 12 13 14 15 16 17 18 19 20 21 22 23 24 25 26 27 28 29 30 31 32 33 34 35 36 37 38 39 40 41 42 43 44 45 46 47 48 49 50

000
ASUS43 KDTX 241510
RWRMI
MICHIGAN HOURLY REGIONAL WEATHER ROUNDUP
NATIONAL WEATHER SERVICE DETROIT/PONTIAC MI
1100 AM EDT SUN MAY 24 2015

NOTE: "FAIR" INDICATES FEW OR NO CLOUDS BELOW 12,000 FEET WITH NO
SIGNIFICANT WEATHER AND/OR OBSTRUCTION TO VISIBILITY.

MIZ047>049-052>055-059>063-066>070-074>076-081>083-241600-
SOUTHEAST LOWER MICHIGAN

CITY           SKY/WX    TMP DP  RH WIND       PRES   REMARKS
ADRIAN         PTSUNNY   72  48  42 SW9       30.26F
ALMA           PTSUNNY   72  51  47 SW5       30.22S
ANN ARBOR      MOSUNNY   74  49  41 SW13      30.25F
BAD AXE        PTSUNNY   72  48  41 SW6       30.21F
CARO           PTSUNNY   74  52  47 SW6       30.21F
DETROIT CITY   MOSUNNY   73  52  47 S10       30.25F
DETROIT        PTSUNNY   76  51  41 S13       30.26F
FLINT          MOSUNNY   76  49  38 SW7       30.23F
GROSSE ILE     MOSUNNY   68  57  68 S9        30.25S
HILLSDALE      PTSUNNY   73  50  43 S10       30.26S
HOWELL         PTSUNNY   72  49  43 SW8       30.24S

CITY           SKY/WX    TMP DP  RH WIND       PRES   REMARKS
JACKSON        CLOUDY    71  50  47 SW9       30.25R
LAMBERTVILLE   MOSUNNY   73  46  38 SW3       30.26F
LANSING        CLOUDY    71  51  49 S10       30.24S
LAPEER         FAIR      75  44  32 W8        30.23F
MASON          CLOUDY    70  50  49 S3        30.24S
MONROE         SUNNY     75  48  38 SW13      30.24F
MT. CLEMENS    PTSUNNY   77  51  39 W9        30.22F
PONTIAC        PTSUNNY   75  48  38 SW8       30.24F
PORT HOPE        N/A     77  45  32 VRB5      30.19F
PORT HURON     PTSUNNY   73  50  43 SW3       30.23F
TRI CITIES     PTSUNNY   75  51  43 SW7       30.21F
MIDLAND        FAIR      74  49  40 SW6       30.20S
TROY           MOSUNNY   76  48  37 SW9       30.27S
SAGINAW HB     PTSUNNY   77  46  33 SW7       30.20F
$$
MIZ043>046-050>051-056>058-064>065-071>073-077>080-241600-
SOUTHWEST LOWER MICHIGAN

CITY           SKY/WX    TMP DP  RH WIND       PRES   REMARKS
BATTLE CREEK   CLOUDY    70  51  51 S9        30.24S
BENTON HARBOR  CLOUDY    66  53  63 SE6       30.20S
BIG RAPIDS     CLOUDY    69  48  47 SE5       30.19S
COLDWATER      PTSUNNY   72  51  46 S10G16    30.24S
FREMONT        FAIR      67  47  49 S3        30.20S
HOLLAND        CLOUDY    68  54  60 S3        30.22R
GRAND RAPIDS   CLOUDY    71  50  47 S7        30.22R
IONIA          FAIR      74  46  37 S13       30.22S
KALAMAZOO      CLOUDY    69  53  56 S6        30.24R
LUDINGTON      CLOUDY    71  48  43 S7        30.17S
MARSHALL       CLOUDY    71  51  49 S5        30.24R
MOUNT PLEASANT PTSUNNY   74  50  42 SW6       30.20S
MUSKEGON       CLOUDY    69  49  48 S7        30.20S
SOUTH HAVEN    CLOUDY    67  51  55 S7        30.21S
$$
MIZ016>042-241600-
NORTHERN LOWER MICHIGAN

CITY           SKY/WX    TMP DP  RH WIND       PRES   REMARKS
ALPENA         PTSUNNY   75  43  31 W8        30.18S
BEAVER ISLAND  CLOUDY    67  36  31 SW9       30.16R
BELLAIRE       PTSUNNY   73  43  34 CALM      30.16F
CADILLAC       CLOUDY    72  48  43 SW9G16    30.18S
CHARLEVOIX     CLOUDY    66  47  49 E5        30.18F
FRANKFORT      CLOUDY    69  41  35 W8        30.16S
GAYLORD        PTSUNNY   73  42  32 SW9       30.18F
GRAYLING       PTSUNNY   75  43  31 S5        30.19S
HARBOR SPRINGS CLOUDY    66  44  45 CALM      30.17R
HOUGHTON LAKE  CLOUDY    72  46  39 SW5       30.19F
MANISTEE       CLOUDY    70  46  43 CALM      30.17S
OSCODA         PTSUNNY   77  46  32 SW6       30.18S
PELLSTON       CLOUDY    71  43  36 W6        30.16F
ROGERS CITY    PTSUNNY   72  45  37 W8        30.17S
TRAVERSE CITY  PTSUNNY   71  46  40 CALM      30.15F
$$
MIZ007>008-015-241600-
EASTERN UPPER MICHIGAN

CITY           SKY/WX    TMP DP  RH WIND       PRES   REMARKS
KINROSS        CLOUDY    66  45  45 W6        30.14F
MACKINAC ISLAN CLOUDY    62  41  46 SW6       30.15S
NEWBERRY       CLOUDY    70  44  39 SW8       30.13S
S. S. MARIE    MOSUNNY   70  46  42 CALM      30.13S
MUNISING         N/A     66  45  46 CALM      30.10F
$$
MIZ004>006-011>014-085-241600-
CENTRAL UPPER MICHIGAN

CITY           SKY/WX    TMP DP  RH WIND       PRES   REMARKS
MANISTIQUE     PTSUNNY   54  40  59 S5        30.15R
ESCANABA       CLOUDY    63  46  55 SE7       30.13S
MENOMINEE      CLOUDY    66  48  52 S6        30.13S
SAWYER-GWINN   MOSUNNY   72  41  33 SW3       30.12F
$$
MIZ001>003-009>011-084-241600-
WESTERN UPPER MICHIGAN

CITY           SKY/WX    TMP DP  RH WIND       PRES   REMARKS
IRON MOUNTAIN  CLOUDY    72  46  39 S6        30.13S
HOUGHTON       MOSUNNY   71  44  37 W13       30.09S
COPPER HARBOR    N/A     58  42  55 N8        30.07R
IRONWOOD       CLOUDY    66  46  48 CALM      30.09F
$$

ABBREVIATIONS USED IN REMARKS
   TC - TEMPERATURE IN CELSIUS
  WCI - WIND CHILL INDEX
   HX - HEAT INDEX
  VSB - VISIBILITY



USA.gov is the U.S. government's official web portal to all federal, state and local government web resources and services.